Lefor, ND

6:41 AM MDT on August 27, 2016 (GMT -0600)
Dickinson Municipal

Weather History for KDIK - September, 2011

Change the Weather History Date:

Saturday, September 24, 2011

  Actual Average Record
Temperature  
Mean Temperature 69 °F 53 °F  
Max Temperature 87 °F 67 °F 91 °F (1992)
Min Temperature 50 °F 39 °F 20 °F (1926)
Degree Days  
Heating Degree Days 0 12  
Month to date heating degree days 182 186  
Since 1 July heating degree days 206 272  
Cooling Degree Days 4 0  
Month to date cooling degree days 16 30  
Year to date cooling degree days 340 416  
Growing Degree Days 18 (Base 50)    
Moisture  
Dew Point 47 °F    
Average Humidity 51    
Maximum Humidity 77    
Minimum Humidity 25    
Precipitation  
Precipitation 0.00 in 0.05 in 1.33 in (1920)
Month to date precipitation 0.66 1.18  
Year to date precipitation 16.99 13.47  
Sea Level Pressure  
Sea Level Pressure 29.87 in    
Wind  
Wind Speed 6 mph (West)    
Max Wind Speed 12 mph    
Max Gust Speed 14 mph    
Visibility 10 miles    
Events      
T = Trace of Precipitation, MM = Missing Value Source: NWS Daily Summary

Daily Weather History Graph

Daily Weather History Graph

Search for Another Location

Airport or City:

Trip Planner

Search our weather history database for the weather conditions in past years. The results will help you decide how hot, cold, wet, or windy it might be!

Date:

Astronomy

Sep. 24, 2011 Rise Set
Actual Time 6:40 AM MDT 6:45 PM MDT
Civil Twilight 6:10 AM MDT 7:15 PM MDT
Nautical Twilight 5:34 AM MDT 7:50 PM MDT
Astronomical Twilight 4:58 AM MDT 8:27 PM MDT
Moon 3:07 AM MDT (9/24) 5:00 PM MDT (9/24)
Length of Visible Light 13h 05m
Length of Day
12h 04m
Waning Crescent, 11% of the Moon is Illuminated
Sep 24
Waning Crescent
Sep 27
New
Oct 3
First Quarter
Oct 11
Full
Oct 19
Last Quarter

Hourly Weather History & Observations

Time (MDT) Temp. Dew Point Humidity Pressure Visibility Wind Dir Wind Speed Gust Speed Precip Events Conditions
12:56 AM 55.9 °F 46.0 °F 69% 29.88 in 10.0 mi West 4.6 mph - N/A   Clear
1:56 AM 54.0 °F 45.0 °F 72% 29.88 in 10.0 mi West 4.6 mph - N/A   Clear
2:56 AM 53.1 °F 45.0 °F 74% 29.88 in 10.0 mi West 5.8 mph - N/A   Clear
3:56 AM 52.0 °F 44.1 °F 74% 29.88 in 10.0 mi West 3.5 mph - N/A   Clear
4:56 AM 54.0 °F 45.0 °F 72% 29.88 in 10.0 mi WNW 8.1 mph - N/A   Clear
5:56 AM 52.0 °F 44.1 °F 74% 29.90 in 10.0 mi West 8.1 mph - N/A   Clear
6:56 AM 51.1 °F 44.1 °F 77% 29.92 in 10.0 mi West 8.1 mph - N/A   Clear
7:56 AM 60.1 °F 46.9 °F 62% 29.92 in 10.0 mi WNW 5.8 mph - N/A   Clear
9:56 AM 73.9 °F 48.0 °F 40% 29.91 in 10.0 mi NW 5.8 mph - N/A   Clear
10:56 AM 79.0 °F 46.9 °F 32% 29.91 in 10.0 mi WNW 4.6 mph - N/A   Clear
11:56 AM 82.9 °F 46.9 °F 28% 29.89 in 10.0 mi NNW 5.8 mph - N/A   Clear
12:56 PM 84.0 °F 46.9 °F 27% 29.87 in 10.0 mi Calm Calm - N/A   Clear
1:56 PM 86.0 °F 46.9 °F 26% 29.86 in 10.0 mi Variable 4.6 mph - N/A   Clear
2:56 PM 86.0 °F 46.9 °F 26% 29.85 in 10.0 mi North 5.8 mph - N/A   Clear
3:56 PM 86.0 °F 46.9 °F 26% 29.85 in 10.0 mi Variable 3.5 mph - N/A   Clear
4:56 PM 86.0 °F 46.0 °F 25% 29.84 in 10.0 mi Calm Calm - N/A   Clear
5:56 PM 81.0 °F 52.0 °F 36% 29.84 in 6.0 mi East 4.6 mph - N/A   Haze
6:56 PM 75.0 °F 48.9 °F 40% 29.86 in 10.0 mi ESE 5.8 mph - N/A   Clear
7:56 PM 63.0 °F 48.9 °F 60% 29.86 in 10.0 mi SSE 5.8 mph - N/A   Clear
8:56 PM 62.1 °F 48.9 °F 62% 29.86 in 10.0 mi SSE 8.1 mph - N/A   Clear
9:56 PM 57.0 °F 48.9 °F 74% 29.85 in 10.0 mi South 8.1 mph - N/A   Clear
11:56 PM 57.0 °F 48.0 °F 72% 29.83 in 10.0 mi South 9.2 mph - N/A   Clear